Location: Burbank
(38.7788°N, 114.0429°W)
Time: 23:06:06
(UTC+00:00)

Transit 2A - Pass Details

Date: 10 May 2026
Orbit: 595 x 949 km, 66.7° (Epoch: 5 June)

Event Time Altitude Azimuth Distance (km) Brightness Sun altitude
Rises 10:23:08 0° 321° (NW) 3,125 9.3 -20.9°
Reaches altitude 10° 10:25:48 10° 311° (NW) 2,142 8.3 -20.5°
Enters shadow 10:28:24 24° 285° (WNW) 1,359 7.0 -20.1°
Maximum altitude 10:29:58 30° 251° (WSW) 1,164 - -19.9°
Drops below altitude 10° 10:33:51 10° 190° (S) 1,983 - -19.4°
Sets 10:36:14 0° 179° (S) 2,854 - -19.1°
